FW9306 Weather Reports


Display with metric or nautical units.
time (UTC)temp
F
wind
direction
speed
MPH
gust
MPH
rain 1hr
in
rain 24hr
in
rain mn
in
humidity
%
barometer
mb
20260502220041 87 191 3.0 5.0 0.00 0.00 0.00 20 1011.9
20260502215538 86 154 3.0 6.0 0.00 0.00 0.00 19 1011.7
20260502215035 87 184 1.0 2.0 0.00 0.00 0.00 19 1012.0
20260502214532 85 175 8.0 9.0 0.00 0.00 0.00 19 1012.1
20260502214029 84 186 3.0 5.0 0.00 0.00 0.00 20 1012.4
20260502213526 85 248 2.0 3.0 0.00 0.00 0.00 22 1012.4
20260502213024 86 267 4.0 5.0 0.00 0.00 0.00 24 1012.2
20260502212522 85 267 1.0 1.0 0.00 0.00 0.00 20 1012.3
20260502212020 84 65 2.0 2.0 0.00 0.00 0.00 20 1012.7
20260502211515 85 212 9.0 10.0 0.00 0.00 0.00 19 1012.7
20260502211013 84 232 6.0 7.0 0.00 0.00 0.00 22 1012.7
20260502210509 85 249 8.0 9.0 0.00 0.00 0.00 19 1012.5
20260502210007 85 229 6.0 7.0 0.00 0.00 0.00 21 1012.7
20260502205503 85 192 9.0 11.0 0.00 0.00 0.00 20 1012.7
20260502205000 86 178 5.0 7.0 0.00 0.00 0.00 19 1013.1
20260502204457 86 196 4.0 6.0 0.00 0.00 0.00 19 1013.2
20260502203955 86 201 7.0 9.0 0.00 0.00 0.00 19 1013.2
20260502203451 84 187 7.0 8.0 0.00 0.00 0.00 19 1013.2
20260502202948 85 137 6.0 7.0 0.00 0.00 0.00 18 1013.2
20260502202445 85 201 10.0 13.0 0.00 0.00 0.00 19 1013.3
20260502201943 87 236 9.0 9.0 0.00 0.00 0.00 17 1013.4
20260502201438 86 325 1.0 1.0 0.00 0.00 0.00 19 1013.2
20260502200935 87 227 2.0 2.0 0.00 0.00 0.00 18 1013.5
20260502200431 84 227 3.0 3.0 0.00 0.00 0.00 20 1013.4
20260502195929 85 262 3.0 3.0 0.00 0.00 0.00 19 1013.7
20260502195426 86 159 2.0 3.0 0.00 0.00 0.00 17 1013.7
20260502194922 84 226 5.0 8.0 0.00 0.00 0.00 20 1013.6
20260502194419 85 185 3.0 5.0 0.00 0.00 0.00 22 1013.8
20260502193915 86 133 4.0 7.0 0.00 0.00 0.00 22 1013.8
20260502193412 85 154 4.0 7.0 0.00 0.00 0.00 24 1013.8
20260502192907 85 155 6.0 7.0 0.00 0.00 0.00 24 1014.0
20260502192405 85 158 4.0 7.0 0.00 0.00 0.00 25 1013.7
20260502191902 85 200 11.0 14.0 0.00 0.00 0.00 26 1014.0
20260502191400 83 126 5.0 6.0 0.00 0.00 0.00 26 1014.1
20260502190857 85 109 6.0 7.0 0.00 0.00 0.00 25 1014.0
20260502190354 85 196 7.0 11.0 0.00 0.00 0.00 26 1014.2
20260502185850 83 186 3.0 5.0 0.00 0.00 0.00 26 1014.2
20260502185345 85 189 8.0 10.0 0.00 0.00 0.00 26 1014.4
20260502184843 84 261 6.0 9.0 0.00 0.00 0.00 27 1014.3
20260502184338 83 105 3.0 5.0 0.00 0.00 0.00 27 1014.7
20260502183835 83 150 6.0 9.0 0.00 0.00 0.00 27 1014.4
20260502183331 82 190 7.0 8.0 0.00 0.00 0.00 28 1014.7
20260502182826 83 186 9.0 11.0 0.00 0.00 0.00 27 1014.6
20260502182322 81 195 9.0 10.0 0.00 0.00 0.00 30 1014.5
20260502181819 82 196 6.0 8.0 0.00 0.00 0.00 28 1014.9
20260502181318 82 149 3.0 5.0 0.00 0.00 0.00 29 1015.0
20260502180815 82 234 11.0 13.0 0.00 0.00 0.00 29 1014.9
20260502180313 82 178 5.0 6.0 0.00 0.00 0.00 28 1014.9
20260502170231 79 155 1.0 1.0 0.00 0.00 0.00 30 1015.4
20260502164219 77 194 0.0 1.0 0.00 0.00 0.00 34 1015.3
20260502163714 77 284 2.0 2.0 0.00 0.00 0.00 34 1014.9
20260502163211 77 204 2.0 3.0 0.00 0.00 0.00 34 1015.3
20260502162708 76 217 3.0 3.0 0.00 0.00 0.00 35 1015.3
20260502162205 76 276 4.0 5.0 0.00 0.00 0.00 35 1015.4
20260502161702 75 343 3.0 3.0 0.00 0.00 0.00 36 1015.6
20260502161158 75 224 3.0 3.0 0.00 0.00 0.00 37 1015.4
20260502160657 76 184 3.0 3.0 0.00 0.00 0.00 36 1015.5
20260502160156 76 120 1.0 1.0 0.00 0.00 0.00 35 1015.3
20260502152115 74 102 2.0 3.0 0.00 0.00 0.00 36 1015.0
20260502151612 74 99 5.0 6.0 0.00 0.00 0.00 37 1015.0
20260502151109 73 85 3.0 5.0 0.00 0.00 0.00 39 1015.1
20260502150607 73 29 4.0 5.0 0.00 0.00 0.00 38 1015.1
20260502130451 60 177 0.0 1.0 0.00 0.00 0.00 55 1013.5
20260502123434 59 189 4.0 5.0 0.00 0.00 0.00 51 1013.1
20260502122931 59 190 1.0 1.0 0.00 0.00 0.00 50 1013.0
20260502122427 59 184 0.0 1.0 0.00 0.00 0.00 49 1012.9
20260502121926 59 150 1.0 1.0 0.00 0.00 0.00 48 1012.8
20260502121422 60 186 3.0 3.0 0.00 0.00 0.00 46 1012.9
20260502120920 60 185 0.0 0.0 0.00 0.00 0.00 45 1012.8
20260502120416 60 204 1.0 2.0 0.00 0.00 0.00 44 1012.9
20260502115913 60 195 1.0 1.0 0.00 0.00 0.00 42 1013.0
20260502115411 60 180 0.0 1.0 0.00 0.00 0.00 42 1012.9
20260502114906 60 181 1.0 1.0 0.00 0.00 0.00 41 1012.9
20260502114404 62 186 1.0 1.0 0.00 0.00 0.00 41 1012.8
20260502113900 61 149 1.0 1.0 0.00 0.00 0.00 40 1012.7
20260502113358 60 191 1.0 1.0 0.00 0.00 0.00 41 1012.9
20260502112856 59 199 1.0 2.0 0.00 0.00 0.00 43 1013.0
20260502112354 58 166 1.0 1.0 0.00 0.00 0.00 45 1013.0
20260502111851 58 133 1.0 1.0 0.00 0.00 0.00 44 1013.0
20260502111348 58 195 3.0 3.0 0.00 0.00 0.00 44 1012.9
20260502110846 58 195 5.0 5.0 0.00 0.00 0.00 44 1013.0
20260502110344 58 158 0.0 0.0 0.00 0.00 0.00 44 1012.9
20260502105841 59 209 0.0 0.0 0.00 0.00 0.00 44 1012.9
20260502105337 59 186 3.0 3.0 0.00 0.00 0.00 43 1013.1
20260502104835 59 194 3.0 3.0 0.00 0.00 0.00 43 1012.9
20260502104332 59 183 3.0 3.0 0.00 0.00 0.00 42 1013.0
20260502103829 59 174 0.0 1.0 0.00 0.00 0.00 42 1012.9
20260502103327 60 216 1.0 1.0 0.00 0.00 0.00 41 1012.8
20260502102824 59 184 3.0 5.0 0.00 0.00 0.00 41 1012.7
20260502102320 59 179 3.0 5.0 0.00 0.00 0.00 43 1012.9
20260502101818 59 182 3.0 3.0 0.00 0.00 0.00 43 1012.4
20260502101316 59 177 3.0 3.0 0.00 0.00 0.00 43 1012.5
20260502100814 59 199 1.0 1.0 0.00 0.00 0.00 42 1012.5
20260502100313 60 169 3.0 3.0 0.00 0.00 0.00 42 1012.5
20260502091247 61 168 1.0 1.0 0.00 0.00 0.00 38 1012.3
20260502090744 61 166 1.0 1.0 0.00 0.00 0.00 38 1012.5
20260502090241 61 207 1.0 1.0 0.00 0.00 0.00 37 1012.5
20260502071142 64 188 1.0 2.0 0.00 0.00 0.00 35 1012.8
20260502070640 64 143 2.0 2.0 0.00 0.00 0.00 35 1012.7
20260502070137 64 152 1.0 1.0 0.00 0.00 0.00 35 1012.5
20260502065635 64 187 1.0 1.0 0.00 0.00 0.00 35 1012.9
20260502065132 64 177 0.0 1.0 0.00 0.00 0.00 35 1012.8
20260502064631 65 205 1.0 1.0 0.00 0.00 0.00 34 1012.9
20260502064128 67 176 1.0 1.0 0.00 0.00 0.00 34 1012.7
20260502063626 67 129 1.0 1.0 0.00 0.00 0.00 33 1012.7
20260502063123 66 120 1.0 1.0 0.00 0.00 0.00 33 1012.5
20260502062620 69 206 2.0 2.0 0.00 0.00 0.00 32 1012.5
20260502062118 68 133 2.0 2.0 0.00 0.00 0.00 31 1012.3
20260502061616 69 207 1.0 1.0 0.00 0.00 0.00 31 1012.2
20260502061113 69 166 1.0 1.0 0.00 0.00 0.00 30 1012.3
20260502060613 68 154 1.0 2.0 0.00 0.00 0.00 31 1012.0
20260502060110 67 123 2.0 2.0 0.00 0.00 0.00 32 1012.1
20260502055608 67 175 0.0 0.0 0.00 0.00 0.00 32 1012.2
20260502055106 69 207 1.0 2.0 0.00 0.00 0.00 31 1012.1
20260502054605 69 181 0.0 0.0 0.00 0.00 0.00 31 1012.0
20260502054101 69 171 1.0 1.0 0.00 0.00 0.00 31 1012.0
20260502053558 71 184 0.0 0.0 0.00 0.00 0.00 31 1011.9
20260502053056 71 167 0.0 0.0 0.00 0.00 0.00 31 1012.2
20260502052554 72 184 1.0 1.0 0.00 0.00 0.00 30 1012.0
20260502052052 73 317 1.0 1.0 0.00 0.00 0.00 28 1011.8
20260502051550 72 345 1.0 1.0 0.00 0.00 0.00 29 1011.7
20260502051047 72 333 1.0 2.0 0.00 0.00 0.00 30 1011.6
20260502050543 72 241 1.0 1.0 0.00 0.00 0.00 30 1011.9
20260502050040 72 254 2.0 2.0 0.00 0.00 0.00 30 1011.7
20260502045537 72 240 1.0 1.0 0.00 0.00 0.00 30 1011.8
20260502045034 72 350 1.0 1.0 0.00 0.00 0.00 29 1011.7
20260502044530 72 224 0.0 0.0 0.00 0.00 0.00 30 1011.7
20260502044027 72 218 1.0 1.0 0.00 0.00 0.00 30 1011.6
20260502043525 73 178 1.0 1.0 0.00 0.00 0.00 29 1011.7
20260502043021 74 201 1.0 1.0 0.00 0.00 0.00 27 1011.7
20260502042516 74 338 1.0 1.0 0.00 0.00 0.00 27 1011.4
20260502042014 74 358 2.0 2.0 0.00 0.00 0.00 27 1011.5
20260502041512 74 354 1.0 2.0 0.00 0.00 0.00 27 1011.6
20260502041008 73 19 2.0 2.0 0.00 0.00 0.00 28 1011.0
20260502040505 73 340 1.0 1.0 0.00 0.00 0.00 28 1011.5
20260502040002 73 186 0.0 0.0 0.00 0.00 0.00 28 1011.1
20260502035457 73 186 0.0 0.0 0.00 0.00 0.00 27 1011.2
20260502034955 73 189 0.0 0.0 0.00 0.00 0.00 28 1010.9
20260502034453 73 186 0.0 0.0 0.00 0.00 0.00 27 1011.1
20260502033952 74 186 0.0 0.0 0.00 0.00 0.00 27 1011.0
20260502033449 75 186 0.0 0.0 0.00 0.00 0.00 26 1011.0
20260502032945 76 228 0.0 1.0 0.00 0.00 0.00 25 1010.9
20260502032442 76 171 0.0 0.0 0.00 0.00 0.00 25 1011.0
20260502031939 77 114 0.0 1.0 0.00 0.00 0.00 24 1010.7
20260502031438 77 347 1.0 2.0 0.00 0.00 0.00 24 1010.6
20260502030935 77 324 1.0 2.0 0.00 0.00 0.00 23 1010.9
20260502030433 77 2 2.0 2.0 0.00 0.00 0.00 23 1010.4
20260502025931 77 350 2.0 2.0 0.00 0.00 0.00 23 1010.5
20260502025427 78 344 2.0 2.0 0.00 0.00 0.00 23 1010.5
20260502024926 78 4 3.0 3.0 0.00 0.00 0.00 23 1010.3
20260502024424 78 7 3.0 3.0 0.00 0.00 0.00 23 1010.3
20260502023921 78 358 2.0 2.0 0.00 0.00 0.00 22 1010.2
20260502023419 78 357 2.0 2.0 0.00 0.00 0.00 23 1010.2
20260502022916 78 7 2.0 2.0 0.00 0.00 0.00 22 1010.3
20260502022412 78 177 1.0 1.0 0.00 0.00 0.00 23 1010.1
20260502021909 78 341 1.0 2.0 0.00 0.00 0.00 22 1010.1
20260502021406 78 313 2.0 2.0 0.00 0.00 0.00 22 1009.9
20260502020904 79 276 2.0 3.0 0.00 0.00 0.00 22 1009.9
20260502020401 80 144 5.0 7.0 0.00 0.00 0.00 21 1009.9
20260502015858 79 340 4.0 5.0 0.00 0.00 0.00 21 1009.8
20260502015355 80 330 4.0 5.0 0.00 0.00 0.00 21 1009.8
20260502014852 80 355 3.0 3.0 0.00 0.00 0.00 22 1009.8
20260502014349 80 336 3.0 5.0 0.00 0.00 0.00 22 1009.6
20260502013845 80 251 6.0 7.0 0.00 0.00 0.00 21 1009.7
20260502013341 80 312 3.0 3.0 0.00 0.00 0.00 21 1009.6
20260502012838 81 315 2.0 2.0 0.00 0.00 0.00 21 1009.7
20260502012336 81 11 2.0 3.0 0.00 0.00 0.00 20 1009.5
20260502011833 81 240 2.0 3.0 0.00 0.00 0.00 22 1009.7
20260502011329 81 353 3.0 3.0 0.00 0.00 0.00 21 1009.9
20260502010826 81 311 2.0 3.0 0.00 0.00 0.00 22 1009.4
20260502010323 81 307 3.0 3.0 0.00 0.00 0.00 20 1009.6
20260502005819 81 301 3.0 3.0 0.00 0.00 0.00 20 1009.6
20260502005318 81 323 3.0 3.0 0.00 0.00 0.00 22 1009.5
20260502004815 82 171 3.0 5.0 0.00 0.00 0.00 22 1009.3
20260502004310 81 102 3.0 5.0 0.00 0.00 0.00 21 1009.1
20260502003808 82 284 7.0 8.0 0.00 0.00 0.00 21 1009.5
20260502003305 82 14 5.0 7.0 0.00 0.00 0.00 22 1009.5
20260502002801 82 29 6.0 7.0 0.00 0.00 0.00 22 1009.5
20260502002259 82 287 6.0 7.0 0.00 0.00 0.00 22 1009.5
20260502001755 83 357 4.0 6.0 0.00 0.00 0.00 24 1009.5
20260502001253 82 330 6.0 8.0 0.00 0.00 0.00 22 1009.5
20260502000746 83 109 3.0 3.0 0.00 0.00 0.00 22 1009.6
20260502000244 83 247 3.0 5.0 0.00 0.00 0.00 20 1009.4
20260501235738 81 333 5.0 6.0 0.00 0.00 0.00 24 1009.3
20260501235235 82 311 5.0 6.0 0.00 0.00 0.00 21 1009.4
20260501234731 82 238 4.0 5.0 0.00 0.00 0.00 22 1009.5
20260501234228 83 169 8.0 10.0 0.00 0.00 0.00 22 1009.3
20260501233726 83 354 3.0 5.0 0.00 0.00 0.00 22 1009.5
20260501233224 82 337 4.0 5.0 0.00 0.00 0.00 25 1009.4
20260501232719 82 41 3.0 3.0 0.00 0.00 0.00 23 1009.4
20260501232216 82 284 3.0 3.0 0.00 0.00 0.00 23 1009.4
20260501231714 82 15 4.0 5.0 0.00 0.00 0.00 22 1009.6
20260501231212 82 350 4.0 5.0 0.00 0.00 0.00 22 1009.5
20260501230710 82 301 3.0 3.0 0.00 0.00 0.00 24 1009.2
20260501230208 82 241 8.0 8.0 0.00 0.00 0.00 23 1009.5
20260501225705 82 319 5.0 6.0 0.00 0.00 0.00 23 1009.3
20260501225202 82 264 7.0 10.0 0.00 0.00 0.00 24 1009.4
20260501224658 82 321 3.0 3.0 0.00 0.00 0.00 25 1009.6
20260501224156 82 276 7.0 8.0 0.00 0.00 0.00 24 1009.9
20260501223652 82 335 8.0 9.0 0.00 0.00 0.00 24 1009.9
20260501223149 81 238 7.0 8.0 0.00 0.00 0.00 24 1010.2
20260501222645 82 315 1.0 2.0 0.00 0.00 0.00 25 1009.9
20260501222142 82 339 3.0 5.0 0.00 0.00 0.00 23 1009.8
20260501221639 82 200 7.0 8.0 0.00 0.00 0.00 24 1009.9
20260501221137 81 260 4.0 6.0 0.00 0.00 0.00 24 1010.1
20260501220634 81 198 3.0 3.0 0.00 0.00 0.00 24 1009.8